SAS840 BIKF-ENGM

Flight info

Callsign SAS840
Flight time 2h 19m
Altitude 41000
Route LUTER2A LUTER DCT 64N010W DCT ISVIG/N0496F410 DCT BELGU BELGU3L
Aircraft A359/H-V/N

Departure

Time 2026-05-05 18:39
Airport Keflavik International Airport (BIKF)

Arrival

Time 2026-05-05 20:59
Airport Oslo-Gardermoen International Airport (ENGM)
Time Latitude Longitude Altitude Speed Heading
2026-05-05 18:12 63.99278 -22.62449 143 ft 0 kts
2026-05-05 18:12 63.99282 -22.62447 165 ft 0 kts
2026-05-05 18:30 63.99274 -22.62449 164 ft 3 kts
2026-05-05 18:30 63.99254 -22.62454 164 ft 3 kts 17°
2026-05-05 18:30 63.99235 -22.62474 164 ft 3 kts 38°
2026-05-05 18:31 63.99221 -22.62507 163 ft 3 kts 59°
2026-05-05 18:31 63.99218 -22.62517 163 ft 0 kts 66°
2026-05-05 18:33 63.99217 -22.62523 163 ft 3 kts 69°
2026-05-05 18:33 63.99214 -22.62489 163 ft 9 kts 103°
2026-05-05 18:33 63.99179 -22.62269 165 ft 16 kts 101°
2026-05-05 18:34 63.99173 -22.62019 168 ft 16 kts 89°
2026-05-05 18:34 63.99173 -22.61771 170 ft 16 kts 90°
2026-05-05 18:34 63.99174 -22.61522 172 ft 16 kts 90°
2026-05-05 18:34 63.99174 -22.61269 174 ft 16 kts 90°
2026-05-05 18:35 63.99162 -22.61014 175 ft 16 kts 121°
2026-05-05 18:35 63.99056 -22.60945 175 ft 18 kts 179°
2026-05-05 18:35 63.98920 -22.60945 173 ft 21 kts 180°
2026-05-05 18:35 63.98763 -22.60945 171 ft 24 kts 180°
2026-05-05 18:36 63.98584 -22.60942 169 ft 27 kts 179°
2026-05-05 18:36 63.98385 -22.60938 168 ft 30 kts 179°
2026-05-05 18:36 63.98173 -22.60944 167 ft 31 kts 182°
2026-05-05 18:36 63.97950 -22.60949 165 ft 33 kts 180°
2026-05-05 18:37 63.97711 -22.60951 163 ft 36 kts 179°
2026-05-05 18:37 63.97457 -22.60946 161 ft 38 kts 180°
2026-05-05 18:37 63.97189 -22.60944 158 ft 39 kts 180°
2026-05-05 18:37 63.96913 -22.60943 155 ft 41 kts 179°
2026-05-05 18:38 63.96621 -22.60942 152 ft 36 kts 180°
2026-05-05 18:38 63.96477 -22.60877 151 ft 10 kts 124°
2026-05-05 18:38 63.96464 -22.60653 150 ft 21 kts 84°
2026-05-05 18:38 63.96525 -22.60552 151 ft 9 kts
2026-05-05 18:39 63.96633 -22.60551 153 ft 41 kts
2026-05-05 18:39 63.97254 -22.60552 158 ft 135 kts
2026-05-05 18:39 63.98425 -22.60608 425 ft 194 kts
2026-05-05 18:39 63.99944 -22.60644 1060 ft 233 kts
2026-05-05 18:40 64.01529 -22.60614 2095 ft 225 kts
2026-05-05 18:40 64.03127 -22.60579 2826 ft 233 kts
2026-05-05 18:40 64.04729 -22.60041 3517 ft 234 kts 22°
2026-05-05 18:40 64.05970 -22.57734 4204 ft 235 kts 57°
2026-05-05 18:41 64.06415 -22.54144 4927 ft 241 kts 85°
2026-05-05 18:41 64.06400 -22.50268 5617 ft 246 kts 89°
2026-05-05 18:41 64.06355 -22.46333 6353 ft 249 kts 89°
2026-05-05 18:41 64.06328 -22.42351 7133 ft 253 kts 88°
2026-05-05 18:42 64.06346 -22.38308 7930 ft 256 kts 85°
2026-05-05 18:42 64.06488 -22.34296 8726 ft 259 kts 83°
2026-05-05 18:42 64.06653 -22.30169 9560 ft 264 kts 83°
2026-05-05 18:42 64.06811 -22.25927 10362 ft 272 kts 83°
2026-05-05 18:43 64.06962 -22.21556 11143 ft 281 kts 83°
2026-05-05 18:43 64.07113 -22.17054 11950 ft 289 kts 83°
2026-05-05 18:43 64.07267 -22.12331 12473 ft 306 kts 83°
2026-05-05 18:43 64.07428 -22.07328 12941 ft 325 kts 84°
2026-05-05 18:44 64.07596 -22.02046 13410 ft 342 kts 84°
2026-05-05 18:44 64.07769 -21.96489 13884 ft 358 kts 84°
2026-05-05 18:44 64.07946 -21.90687 14325 ft 373 kts 84°
2026-05-05 18:44 64.08127 -21.84667 14755 ft 387 kts 84°
2026-05-05 18:45 64.08313 -21.78416 15193 ft 400 kts 85°
2026-05-05 18:45 64.08501 -21.71995 15633 ft 411 kts 85°
2026-05-05 18:45 64.08692 -21.65376 16084 ft 421 kts 85°
2026-05-05 18:45 64.08886 -21.58672 16542 ft 425 kts 85°
2026-05-05 18:46 64.09072 -21.51901 17011 ft 428 kts 85°
2026-05-05 18:46 64.09257 -21.45083 17489 ft 431 kts 85°
2026-05-05 18:46 64.09441 -21.38221 17978 ft 434 kts 85°
2026-05-05 18:46 64.09623 -21.31309 18469 ft 437 kts 85°
2026-05-05 18:47 64.09804 -21.24347 18898 ft 440 kts 85°
2026-05-05 18:47 64.09983 -21.17334 19324 ft 443 kts 86°
2026-05-05 18:47 64.10159 -21.10276 19762 ft 446 kts 86°
2026-05-05 18:47 64.10338 -21.03151 20207 ft 449 kts 86°
2026-05-05 18:48 64.10509 -20.95996 20657 ft 452 kts 86°
2026-05-05 18:48 64.10621 -20.91224 20959 ft 455 kts 86°
2026-05-05 18:48 64.10787 -20.83982 21425 ft 458 kts 86°
2026-05-05 18:48 64.10952 -20.76691 21890 ft 461 kts 86°
2026-05-05 18:49 64.11120 -20.69317 22364 ft 465 kts 86°
2026-05-05 18:49 64.11281 -20.61896 22849 ft 469 kts 86°
2026-05-05 18:49 64.11436 -20.54429 23341 ft 472 kts 86°
2026-05-05 18:49 64.11590 -20.46895 23830 ft 476 kts 86°
2026-05-05 18:50 64.11742 -20.39296 24235 ft 480 kts 86°
2026-05-05 18:50 64.11897 -20.31663 24648 ft 483 kts 86°
2026-05-05 18:50 64.12073 -20.23932 25056 ft 487 kts 85°
2026-05-05 18:50 64.12258 -20.16168 25489 ft 491 kts 85°
2026-05-05 18:51 64.12443 -20.08331 25907 ft 494 kts 85°
2026-05-05 18:51 64.12623 -20.00446 26339 ft 498 kts 85°
2026-05-05 18:51 64.12799 -19.92509 26782 ft 502 kts 85°
2026-05-05 18:51 64.12969 -19.84491 27232 ft 506 kts 85°
2026-05-05 18:52 64.13135 -19.76397 27702 ft 510 kts 85°
2026-05-05 18:52 64.13295 -19.68356 28148 ft 514 kts 85°
2026-05-05 18:52 64.13453 -19.60148 28614 ft 518 kts 86°
2026-05-05 18:52 64.13607 -19.51891 29094 ft 520 kts 86°
2026-05-05 18:53 64.13757 -19.43581 29594 ft 523 kts 86°
2026-05-05 18:53 64.13904 -19.35246 30092 ft 525 kts 86°
2026-05-05 18:53 64.14046 -19.26870 30529 ft 527 kts 86°
2026-05-05 18:53 64.14183 -19.18489 30925 ft 528 kts 86°
2026-05-05 18:54 64.14316 -19.10072 31210 ft 532 kts 86°
2026-05-05 18:54 64.14446 -19.01561 31473 ft 534 kts 86°
2026-05-05 18:54 64.14571 -18.93032 31739 ft 537 kts 86°
2026-05-05 18:54 64.14692 -18.84493 32008 ft 538 kts 86°
2026-05-05 18:55 64.14807 -18.75929 32280 ft 538 kts 86°
2026-05-05 18:55 64.14917 -18.67356 32558 ft 538 kts 86°
2026-05-05 18:55 64.15021 -18.58808 32838 ft 538 kts 86°
2026-05-05 18:55 64.15120 -18.50207 33127 ft 538 kts 86°
2026-05-05 18:56 64.15215 -18.41645 33409 ft 539 kts 86°
2026-05-05 18:56 64.15306 -18.33056 33701 ft 538 kts 86°
2026-05-05 18:56 64.15391 -18.24583 33993 ft 538 kts 86°
2026-05-05 18:56 64.15473 -18.15884 34288 ft 538 kts 86°
2026-05-05 18:57 64.15548 -18.07416 34528 ft 538 kts 86°
2026-05-05 18:57 64.15618 -17.98864 34774 ft 537 kts 87°
2026-05-05 18:57 64.15683 -17.90310 35028 ft 537 kts 87°
2026-05-05 18:57 64.15743 -17.81769 35293 ft 536 kts 87°
2026-05-05 18:58 64.15798 -17.73223 35540 ft 535 kts 87°
2026-05-05 18:58 64.15848 -17.64702 35797 ft 534 kts 87°
2026-05-05 18:58 64.15892 -17.56195 36058 ft 533 kts 87°
2026-05-05 18:58 64.15932 -17.47713 36321 ft 532 kts 87°
2026-05-05 18:59 64.15967 -17.39229 36590 ft 531 kts 87°
2026-05-05 18:59 64.15997 -17.30771 36852 ft 531 kts 87°
2026-05-05 18:59 64.16022 -17.22326 37131 ft 530 kts 88°
2026-05-05 18:59 64.16042 -17.13889 37402 ft 528 kts 88°
2026-05-05 19:00 64.16057 -17.05485 37702 ft 527 kts 88°
2026-05-05 19:00 64.16067 -16.97086 37970 ft 526 kts 88°
2026-05-05 19:00 64.16073 -16.88711 38262 ft 525 kts 88°
2026-05-05 19:00 64.16073 -16.80336 38551 ft 524 kts 88°
2026-05-05 19:01 64.16069 -16.71983 38757 ft 524 kts 88°
2026-05-05 19:01 64.16061 -16.63621 38936 ft 525 kts 88°
2026-05-05 19:01 64.16047 -16.55256 39085 ft 525 kts 88°
2026-05-05 19:01 64.16029 -16.46908 39229 ft 525 kts 88°
2026-05-05 19:02 64.16005 -16.38534 39382 ft 525 kts 88°
2026-05-05 19:02 64.15977 -16.30168 39535 ft 525 kts 88°
2026-05-05 19:02 64.15944 -16.21809 39688 ft 525 kts 89°
2026-05-05 19:02 64.15907 -16.13459 39835 ft 524 kts 89°
2026-05-05 19:03 64.15864 -16.05092 39990 ft 524 kts 89°
2026-05-05 19:03 64.15817 -15.96760 40143 ft 524 kts 89°
2026-05-05 19:03 64.15765 -15.88413 40301 ft 523 kts 89°
2026-05-05 19:03 64.15708 -15.80070 40454 ft 523 kts 89°
2026-05-05 19:04 64.15647 -15.71753 40620 ft 522 kts 89°
2026-05-05 19:04 64.15581 -15.63435 40781 ft 521 kts 89°
2026-05-05 19:04 64.15510 -15.55128 40939 ft 521 kts 89°
2026-05-05 19:04 64.15435 -15.46843 41107 ft 520 kts 89°
2026-05-05 19:05 64.15272 -15.30321 41211 ft 524 kts 89°
2026-05-05 19:05 64.15087 -15.13554 41208 ft 528 kts 90°
2026-05-05 19:06 64.14882 -14.96694 41210 ft 531 kts 90°
2026-05-05 19:06 64.14655 -14.79803 41210 ft 531 kts 90°
2026-05-05 19:07 64.14409 -14.62859 41205 ft 531 kts 90°
2026-05-05 19:07 64.14143 -14.45952 41213 ft 531 kts 90°
2026-05-05 19:08 64.13858 -14.29016 41209 ft 531 kts 90°
2026-05-05 19:08 64.13553 -14.12133 41204 ft 531 kts 91°
2026-05-05 19:09 64.13229 -13.95246 41206 ft 531 kts 91°
2026-05-05 19:09 64.12886 -13.78346 41202 ft 531 kts 91°
2026-05-05 19:10 64.12523 -13.61467 41202 ft 531 kts 91°
2026-05-05 19:10 64.12142 -13.44697 41196 ft 531 kts 91°
2026-05-05 19:11 64.11743 -13.27949 41195 ft 531 kts 91°
2026-05-05 19:11 64.11315 -13.10816 41190 ft 532 kts 92°
2026-05-05 19:12 64.10870 -12.93780 41186 ft 532 kts 92°
2026-05-05 19:12 64.10412 -12.76980 41181 ft 532 kts 92°
2026-05-05 19:13 64.09931 -12.60083 41176 ft 533 kts 92°
2026-05-05 19:13 64.09429 -12.43192 41173 ft 533 kts 92°
2026-05-05 19:14 64.08907 -12.26276 41172 ft 533 kts 92°
2026-05-05 19:14 64.08365 -12.09397 41168 ft 533 kts 92°
2026-05-05 19:15 64.07804 -11.92501 41164 ft 533 kts 93°
2026-05-05 19:15 64.07225 -11.75609 41162 ft 533 kts 93°
2026-05-05 19:16 64.06626 -11.58723 41163 ft 533 kts 93°
2026-05-05 19:16 64.06008 -11.41871 41156 ft 533 kts 93°
2026-05-05 19:17 64.05369 -11.25002 41150 ft 533 kts 94°
2026-05-05 19:17 64.04710 -11.08158 41139 ft 533 kts 94°
2026-05-05 19:18 64.04033 -10.91325 41135 ft 533 kts 94°
2026-05-05 19:18 64.03337 -10.74494 41136 ft 532 kts 94°
2026-05-05 19:19 64.02625 -10.57783 41134 ft 533 kts 94°
2026-05-05 19:19 64.01890 -10.40983 41118 ft 532 kts 95°
2026-05-05 19:20 64.01135 -10.24188 41122 ft 532 kts 95°
2026-05-05 19:20 64.00362 -10.07399 41113 ft 533 kts 95°
2026-05-05 19:21 63.99527 -9.90601 41108 ft 533 kts 96°
2026-05-05 19:21 63.98440 -9.73920 41109 ft 533 kts 98°
2026-05-05 19:22 63.97292 -9.57215 41106 ft 533 kts 98°
2026-05-05 19:22 63.96161 -9.40522 41101 ft 533 kts 97°
2026-05-05 19:23 63.95035 -9.23845 41097 ft 533 kts 98°
2026-05-05 19:23 63.93893 -9.07177 41094 ft 533 kts 98°
2026-05-05 19:24 63.92731 -8.90519 41089 ft 533 kts 98°
2026-05-05 19:24 63.91549 -8.73872 41083 ft 534 kts 98°
2026-05-05 19:25 63.90346 -8.57229 41081 ft 534 kts 98°
2026-05-05 19:25 63.89125 -8.40615 41077 ft 534 kts 98°
2026-05-05 19:26 63.87891 -8.24104 41071 ft 534 kts 99°
2026-05-05 19:26 63.86632 -8.07505 41067 ft 534 kts 99°
2026-05-05 19:27 63.85351 -7.90905 41063 ft 534 kts 99°
2026-05-05 19:27 63.84053 -7.74330 41062 ft 534 kts 99°
2026-05-05 19:28 63.82734 -7.57750 41056 ft 535 kts 99°
2026-05-05 19:28 63.81396 -7.41185 41052 ft 535 kts 99°
2026-05-05 19:29 63.80039 -7.24639 41046 ft 535 kts 100°
2026-05-05 19:29 63.78662 -7.08083 41043 ft 535 kts 100°
2026-05-05 19:30 63.77265 -6.91543 41036 ft 536 kts 100°
2026-05-05 19:30 63.75849 -6.75016 41038 ft 536 kts 100°
2026-05-05 19:31 63.74414 -6.58490 41032 ft 536 kts 101°
2026-05-05 19:31 63.72960 -6.41994 41030 ft 536 kts 101°
2026-05-05 19:32 63.71486 -6.25503 41024 ft 536 kts 101°
2026-05-05 19:32 63.70002 -6.09122 41018 ft 536 kts 101°
2026-05-05 19:33 63.68489 -5.92656 41019 ft 537 kts 101°
2026-05-05 19:33 63.66957 -5.76203 41012 ft 537 kts 101°
2026-05-05 19:34 63.65408 -5.59770 41009 ft 537 kts 102°
2026-05-05 19:35 63.63044 -5.35117 41007 ft 537 kts 102°
2026-05-05 19:35 63.61707 -5.21380 41004 ft 537 kts 102°
2026-05-05 19:36 63.60093 -5.04997 41000 ft 537 kts 102°
2026-05-05 19:36 63.58460 -4.88624 40998 ft 537 kts 102°
2026-05-05 19:37 63.56821 -4.72386 40991 ft 537 kts 102°
2026-05-05 19:37 63.55150 -4.56045 40989 ft 537 kts 103°
2026-05-05 19:38 63.53461 -4.39725 40988 ft 537 kts 103°
2026-05-05 19:38 63.51754 -4.23424 40984 ft 537 kts 103°
2026-05-05 19:39 63.50026 -4.07135 40981 ft 537 kts 103°
2026-05-05 19:39 63.48282 -3.90872 40975 ft 537 kts 103°
2026-05-05 19:40 63.46519 -3.74631 40976 ft 537 kts 103°
2026-05-05 19:40 63.44736 -3.58401 40971 ft 537 kts 104°
2026-05-05 19:41 63.42937 -3.42199 40967 ft 537 kts 104°
2026-05-05 19:41 63.41119 -3.26019 40966 ft 537 kts 104°
2026-05-05 19:42 63.39283 -3.09866 40964 ft 537 kts 104°
2026-05-05 19:42 63.37430 -2.93733 40962 ft 537 kts 104°
2026-05-05 19:43 63.35557 -2.77619 40959 ft 537 kts 104°
2026-05-05 19:43 63.33667 -2.61522 40957 ft 537 kts 105°
2026-05-05 19:44 63.31757 -2.45444 40958 ft 537 kts 105°
2026-05-05 19:44 63.29843 -2.29492 40958 ft 537 kts 105°
2026-05-05 19:45 63.27898 -2.13455 40956 ft 537 kts 105°
2026-05-05 19:45 63.25936 -1.97458 40959 ft 537 kts 105°
2026-05-05 19:46 63.23955 -1.81466 40960 ft 537 kts 105°
2026-05-05 19:46 63.21957 -1.65498 40959 ft 537 kts 105°
2026-05-05 19:47 63.19942 -1.49567 40960 ft 537 kts 106°
2026-05-05 19:47 63.17908 -1.33648 40960 ft 537 kts 106°
2026-05-05 19:48 63.15858 -1.17764 40964 ft 537 kts 106°
2026-05-05 19:48 63.13789 -1.01891 40964 ft 537 kts 106°
2026-05-05 19:49 63.11716 -0.86152 40968 ft 537 kts 107°
2026-05-05 19:49 63.09611 -0.70317 40965 ft 537 kts 107°
2026-05-05 19:50 63.07487 -0.54497 40969 ft 538 kts 107°
2026-05-05 19:50 63.05345 -0.38699 40972 ft 538 kts 107°
2026-05-05 19:51 63.03185 -0.22919 40972 ft 538 kts 107°
2026-05-05 19:51 63.01005 -0.07151 40972 ft 538 kts 107°
2026-05-05 19:52 62.98871 0.08642 40973 ft 539 kts 105°
2026-05-05 19:52 62.96947 0.24541 40972 ft 539 kts 105°
2026-05-05 19:53 62.94980 0.40433 40969 ft 539 kts 105°
2026-05-05 19:53 62.92982 0.56305 40969 ft 539 kts 106°
2026-05-05 19:54 62.90961 0.72153 40968 ft 539 kts 106°
2026-05-05 19:54 62.88920 0.87991 40968 ft 539 kts 106°
2026-05-05 19:55 62.86861 1.03801 40971 ft 540 kts 106°
2026-05-05 19:55 62.84784 1.19594 40970 ft 540 kts 107°
2026-05-05 19:56 62.82688 1.35372 40968 ft 540 kts 107°
2026-05-05 19:56 62.80577 1.51117 40962 ft 540 kts 107°
2026-05-05 19:57 62.78446 1.66846 40966 ft 540 kts 107°
2026-05-05 19:57 62.76309 1.82476 40967 ft 540 kts 107°
2026-05-05 19:58 62.74141 1.98175 40960 ft 540 kts 107°
2026-05-05 19:58 62.71957 2.13840 40963 ft 540 kts 108°
2026-05-05 19:59 62.69753 2.29504 40960 ft 541 kts 108°
2026-05-05 19:59 62.67532 2.45146 40959 ft 541 kts 108°
2026-05-05 20:00 62.65291 2.60775 40961 ft 541 kts 108°
2026-05-05 20:00 62.63037 2.76356 40958 ft 541 kts 108°
2026-05-05 20:01 62.60760 2.91946 40958 ft 541 kts 108°
2026-05-05 20:01 62.58470 3.07490 40957 ft 541 kts 108°
2026-05-05 20:02 62.56175 3.22919 40956 ft 541 kts 109°
2026-05-05 20:02 62.53848 3.38430 40953 ft 541 kts 109°
2026-05-05 20:03 62.51505 3.53911 40954 ft 541 kts 109°
2026-05-05 20:03 62.49143 3.69380 40955 ft 541 kts 109°
2026-05-05 20:04 62.46764 3.84821 40957 ft 541 kts 109°
2026-05-05 20:04 62.44366 4.00245 40954 ft 541 kts 109°
2026-05-05 20:05 62.41954 4.15631 40963 ft 541 kts 109°
2026-05-05 20:05 62.39522 4.31014 40960 ft 542 kts 110°
2026-05-05 20:06 62.37073 4.46365 40959 ft 542 kts 110°
2026-05-05 20:06 62.34608 4.61692 40962 ft 542 kts 110°
2026-05-05 20:07 62.32124 4.77006 40960 ft 542 kts 110°
2026-05-05 20:07 62.29624 4.92285 40960 ft 542 kts 110°
2026-05-05 20:08 62.27106 5.07553 40968 ft 542 kts 110°
2026-05-05 20:08 62.24568 5.22809 40965 ft 542 kts 111°
2026-05-05 20:09 62.22019 5.38008 40964 ft 542 kts 111°
2026-05-05 20:09 62.19449 5.53208 40973 ft 542 kts 111°
2026-05-05 20:10 62.16865 5.68370 40974 ft 543 kts 111°
2026-05-05 20:10 62.14257 5.83540 40967 ft 543 kts 111°
2026-05-05 20:11 62.11637 5.98666 40968 ft 543 kts 111°
2026-05-05 20:11 62.08997 6.13784 40965 ft 543 kts 111°
2026-05-05 20:12 62.06340 6.28873 40967 ft 544 kts 112°
2026-05-05 20:12 62.03664 6.43954 40985 ft 544 kts 112°
2026-05-05 20:13 62.00971 6.59016 40988 ft 544 kts 112°
2026-05-05 20:13 61.98261 6.74046 40994 ft 544 kts 112°
2026-05-05 20:14 61.95534 6.89065 40993 ft 544 kts 112°
2026-05-05 20:14 61.92796 7.04021 40986 ft 544 kts 112°
2026-05-05 20:15 61.90030 7.19010 40969 ft 545 kts 112°
2026-05-05 20:15 61.87253 7.33945 40964 ft 545 kts 113°
2026-05-05 20:16 61.84456 7.48878 40950 ft 545 kts 113°
2026-05-05 20:16 61.81642 7.63789 40957 ft 545 kts 113°
2026-05-05 20:17 61.78829 7.78577 40958 ft 546 kts 113°
2026-05-05 20:17 61.75982 7.93434 40960 ft 546 kts 114°
2026-05-05 20:18 61.73116 8.08279 40961 ft 546 kts 114°
2026-05-05 20:18 61.71682 8.15672 40818 ft 540 kts 114°
2026-05-05 20:18 61.70260 8.22975 40400 ft 537 kts 114°
2026-05-05 20:18 61.68844 8.30213 39926 ft 531 kts 114°
2026-05-05 20:19 61.67442 8.37360 39394 ft 525 kts 114°
2026-05-05 20:19 61.66049 8.44433 38842 ft 523 kts 114°
2026-05-05 20:19 61.64652 8.51499 38209 ft 523 kts 114°
2026-05-05 20:19 61.63246 8.58583 37521 ft 525 kts 114°
2026-05-05 20:20 61.61831 8.65687 36857 ft 527 kts 115°
2026-05-05 20:20 61.60413 8.72787 36222 ft 528 kts 115°
2026-05-05 20:20 61.58986 8.79908 35585 ft 529 kts 115°
2026-05-05 20:20 61.57554 8.87028 34990 ft 530 kts 115°
2026-05-05 20:21 61.56116 8.94151 34391 ft 531 kts 115°
2026-05-05 20:21 61.54674 9.01274 33784 ft 532 kts 115°
2026-05-05 20:21 61.53217 9.08443 33093 ft 534 kts 116°
2026-05-05 20:21 61.51758 9.15594 32420 ft 536 kts 116°
2026-05-05 20:22 61.50282 9.22799 31745 ft 539 kts 116°
2026-05-05 20:22 61.48798 9.30021 31103 ft 541 kts 116°
2026-05-05 20:22 61.47812 9.34807 30688 ft 543 kts 116°
2026-05-05 20:22 61.46304 9.42102 30050 ft 546 kts 117°
2026-05-05 20:23 61.44790 9.49403 29313 ft 545 kts 117°
2026-05-05 20:23 61.43289 9.56619 28594 ft 540 kts 116°
2026-05-05 20:23 61.41802 9.63743 27850 ft 531 kts 116°
2026-05-05 20:23 61.40350 9.70688 27160 ft 509 kts 117°
2026-05-05 20:24 61.38966 9.77289 26497 ft 486 kts 117°
2026-05-05 20:24 61.37632 9.83619 25837 ft 468 kts 117°
2026-05-05 20:24 61.36331 9.89763 25211 ft 461 kts 117°
2026-05-05 20:24 61.35038 9.95843 24580 ft 456 kts 117°
2026-05-05 20:25 61.33756 10.01854 23956 ft 451 kts 117°
2026-05-05 20:25 61.32489 10.07787 23290 ft 446 kts 117°
2026-05-05 20:25 61.31235 10.13645 22545 ft 440 kts 116°
2026-05-05 20:25 61.30005 10.19378 21813 ft 427 kts 116°
2026-05-05 20:26 61.28817 10.24898 21114 ft 410 kts 116°
2026-05-05 20:26 61.27671 10.30211 20432 ft 395 kts 116°
2026-05-05 20:26 61.26562 10.35335 19759 ft 382 kts 115°
2026-05-05 20:26 61.25490 10.40273 19105 ft 370 kts 115°
2026-05-05 20:27 61.24444 10.45083 18463 ft 360 kts 115°
2026-05-05 20:27 61.23417 10.49755 17763 ft 352 kts 115°
2026-05-05 20:27 61.22119 10.53973 17024 ft 343 kts 134°
2026-05-05 20:27 61.20275 10.56948 16312 ft 332 kts 156°
2026-05-05 20:28 61.18129 10.58361 15601 ft 319 kts 176°
2026-05-05 20:28 61.15962 10.58242 14918 ft 307 kts 195°
2026-05-05 20:28 61.13914 10.57160 14246 ft 302 kts 197°
2026-05-05 20:28 61.11864 10.56210 13565 ft 300 kts 194°
2026-05-05 20:29 61.09851 10.55389 12851 ft 297 kts 193°
2026-05-05 20:29 61.07805 10.54584 12208 ft 293 kts 193°
2026-05-05 20:29 61.05808 10.53808 11949 ft 292 kts 193°
2026-05-05 20:29 61.03834 10.53048 11916 ft 292 kts 193°
2026-05-05 20:30 61.01844 10.52286 11919 ft 291 kts 193°
2026-05-05 20:30 60.99853 10.51525 11923 ft 291 kts 193°
2026-05-05 20:30 60.97859 10.50765 11923 ft 291 kts 193°
2026-05-05 20:30 60.95872 10.50010 11923 ft 291 kts 193°
2026-05-05 20:31 60.93884 10.49254 11923 ft 291 kts 193°
2026-05-05 20:31 60.91895 10.48501 11926 ft 291 kts 193°
2026-05-05 20:31 60.89903 10.47746 11924 ft 291 kts 193°
2026-05-05 20:31 60.87911 10.46995 11924 ft 291 kts 192°
2026-05-05 20:32 60.85916 10.46250 11927 ft 291 kts 193°
2026-05-05 20:32 60.83926 10.45499 11925 ft 291 kts 193°
2026-05-05 20:32 60.81934 10.44750 11924 ft 291 kts 192°
2026-05-05 20:32 60.79941 10.44003 11924 ft 291 kts 193°
2026-05-05 20:33 60.77947 10.43255 11924 ft 291 kts 193°
2026-05-05 20:33 60.75959 10.42512 11926 ft 291 kts 193°
2026-05-05 20:33 60.73959 10.41764 11924 ft 291 kts 193°
2026-05-05 20:33 60.71971 10.41022 11925 ft 291 kts 193°
2026-05-05 20:34 60.69981 10.40281 11924 ft 291 kts 193°
2026-05-05 20:34 60.67982 10.39536 11922 ft 291 kts 193°
2026-05-05 20:34 60.65985 10.38793 11924 ft 291 kts 193°
2026-05-05 20:34 60.63992 10.38054 11924 ft 291 kts 193°
2026-05-05 20:35 60.61997 10.37314 11925 ft 291 kts 193°
2026-05-05 20:35 60.60006 10.36577 11924 ft 292 kts 193°
2026-05-05 20:35 60.58005 10.35838 11924 ft 292 kts 193°
2026-05-05 20:35 60.56008 10.35102 11924 ft 292 kts 193°
2026-05-05 20:36 60.54016 10.34367 11926 ft 292 kts 193°
2026-05-05 20:36 60.52018 10.33631 11923 ft 292 kts 193°
2026-05-05 20:36 60.50014 10.32893 11923 ft 292 kts 193°
2026-05-05 20:36 60.48018 10.32159 11924 ft 292 kts 193°
2026-05-05 20:37 60.46021 10.31426 11924 ft 292 kts 193°
2026-05-05 20:37 60.44019 10.30706 11820 ft 292 kts 192°
2026-05-05 20:37 60.42008 10.30219 11415 ft 291 kts 188°
2026-05-05 20:37 60.39985 10.29872 10928 ft 290 kts 187°
2026-05-05 20:38 60.37983 10.29540 10438 ft 288 kts 187°
2026-05-05 20:38 60.35993 10.29205 9956 ft 286 kts 187°
2026-05-05 20:38 60.34044 10.28874 9451 ft 284 kts 187°
2026-05-05 20:38 60.32085 10.28543 9015 ft 282 kts 187°
2026-05-05 20:39 60.30130 10.28208 8922 ft 282 kts 187°
2026-05-05 20:39 60.28176 10.27869 8921 ft 281 kts 187°
2026-05-05 20:39 60.26247 10.27545 8920 ft 272 kts 186°
2026-05-05 20:39 60.24381 10.27231 8929 ft 261 kts 187°
2026-05-05 20:40 60.22606 10.26925 8923 ft 259 kts 187°
2026-05-05 20:40 60.20811 10.26613 8924 ft 259 kts 187°
2026-05-05 20:40 60.19013 10.26304 8923 ft 259 kts 187°
2026-05-05 20:40 60.17222 10.25998 8924 ft 259 kts 187°
2026-05-05 20:41 60.15430 10.25694 8924 ft 259 kts 187°
2026-05-05 20:41 60.13668 10.25376 8923 ft 250 kts 188°
2026-05-05 20:41 60.11993 10.24585 8926 ft 246 kts 201°
2026-05-05 20:41 60.10383 10.23438 8924 ft 245 kts 202°
2026-05-05 20:42 60.08781 10.22257 8922 ft 245 kts 202°
2026-05-05 20:42 60.07179 10.21087 8919 ft 245 kts 202°
2026-05-05 20:42 60.05576 10.19925 8932 ft 245 kts 202°
2026-05-05 20:42 60.03968 10.18766 8921 ft 246 kts 202°
2026-05-05 20:43 60.02329 10.17919 8935 ft 248 kts 188°
2026-05-05 20:43 60.00587 10.17797 8923 ft 249 kts 181°
2026-05-05 20:43 59.98859 10.17859 8789 ft 248 kts 181°
2026-05-05 20:43 59.97149 10.17917 8621 ft 241 kts 181°
2026-05-05 20:44 59.95490 10.17964 8455 ft 237 kts 181°
2026-05-05 20:44 59.93846 10.18002 8311 ft 236 kts 181°
2026-05-05 20:44 59.92206 10.18088 8144 ft 236 kts 177°
2026-05-05 20:44 59.90602 10.18811 7989 ft 237 kts 162°
2026-05-05 20:45 59.87511 10.21139 7671 ft 237 kts 161°
2026-05-05 20:45 59.85971 10.22308 7497 ft 236 kts 161°
2026-05-05 20:45 59.84438 10.23459 7348 ft 235 kts 161°
2026-05-05 20:46 59.82905 10.24602 7212 ft 235 kts 161°
2026-05-05 20:46 59.81407 10.25893 7041 ft 235 kts 152°
2026-05-05 20:46 59.80063 10.27747 6889 ft 235 kts 143°
2026-05-05 20:46 59.78779 10.29769 6736 ft 235 kts 143°
2026-05-05 20:47 59.77541 10.31865 6577 ft 235 kts 135°
2026-05-05 20:47 59.76673 10.34589 6411 ft 236 kts 109°
2026-05-05 20:47 59.76537 10.37781 6268 ft 234 kts 79°
2026-05-05 20:47 59.77161 10.40724 6119 ft 232 kts 52°
2026-05-05 20:48 59.78299 10.42959 5944 ft 230 kts 39°
2026-05-05 20:48 59.79461 10.45161 5792 ft 231 kts 48°
2026-05-05 20:48 59.80490 10.47606 5616 ft 231 kts 50°
2026-05-05 20:48 59.81494 10.50089 5420 ft 230 kts 50°
2026-05-05 20:49 59.82481 10.52572 5237 ft 229 kts 50°
2026-05-05 20:49 59.83460 10.55062 5070 ft 228 kts 51°
2026-05-05 20:49 59.84424 10.57543 4856 ft 227 kts 51°
2026-05-05 20:49 59.85374 10.60032 4692 ft 226 kts 51°
2026-05-05 20:50 59.86320 10.62522 4513 ft 224 kts 51°
2026-05-05 20:50 59.87253 10.64989 4356 ft 222 kts 51°
2026-05-05 20:50 59.88178 10.67453 4243 ft 223 kts 51°
2026-05-05 20:50 59.89108 10.69923 4230 ft 223 kts 51°
2026-05-05 20:51 59.90024 10.72353 4229 ft 222 kts 51°
2026-05-05 20:51 59.90967 10.74862 4227 ft 222 kts 52°
2026-05-05 20:51 59.91893 10.77329 4229 ft 222 kts 52°
2026-05-05 20:51 59.92818 10.79793 4230 ft 222 kts 52°
2026-05-05 20:52 59.93744 10.82264 4227 ft 222 kts 52°
2026-05-05 20:52 59.94668 10.84728 4224 ft 222 kts 52°
2026-05-05 20:52 59.95572 10.87156 4220 ft 208 kts 52°
2026-05-05 20:52 59.96356 10.89434 4240 ft 194 kts 55°
2026-05-05 20:53 59.97078 10.91673 4249 ft 192 kts 56°
2026-05-05 20:53 59.97804 10.93912 4251 ft 191 kts 54°
2026-05-05 20:53 59.98732 10.95766 4244 ft 189 kts 31°
2026-05-05 20:53 59.99930 10.96789 4251 ft 187 kts 14°
2026-05-05 20:54 60.01172 10.97461 4254 ft 187 kts 13°
2026-05-05 20:54 60.02422 10.98163 4134 ft 184 kts 14°
2026-05-05 20:54 60.03611 10.98851 3902 ft 172 kts 14°
2026-05-05 20:54 60.04727 10.99487 3638 ft 163 kts 14°
2026-05-05 20:55 60.05814 11.00105 3403 ft 162 kts 14°
2026-05-05 20:55 60.06896 11.00725 3170 ft 162 kts 14°
2026-05-05 20:55 60.07965 11.01337 2932 ft 156 kts 13°
2026-05-05 20:55 60.08988 11.01921 2725 ft 151 kts 13°
2026-05-05 20:56 60.09992 11.02495 2515 ft 150 kts 13°
2026-05-05 20:56 60.10996 11.03071 2308 ft 150 kts 13°
2026-05-05 20:56 60.11998 11.03645 2091 ft 148 kts 13°
2026-05-05 20:56 60.12958 11.04197 1896 ft 141 kts 13°
2026-05-05 20:57 60.13895 11.04732 1699 ft 140 kts 12°
2026-05-05 20:57 60.14831 11.05268 1472 ft 141 kts 13°
2026-05-05 20:57 60.15775 11.05813 1269 ft 141 kts 14°
2026-05-05 20:57 60.16723 11.06358 1070 ft 143 kts 15°
2026-05-05 20:58 60.17675 11.06917 891 ft 143 kts 15°
2026-05-05 20:58 60.18634 11.07460 698 ft 143 kts 14°
2026-05-05 20:58 60.19535 11.07968 679 ft 117 kts 16°
2026-05-05 20:58 60.20217 11.08364 683 ft 90 kts 16°
2026-05-05 20:59 60.20643 11.08634 680 ft 25 kts 39°
2026-05-05 20:59 60.20649 11.08955 679 ft 17 kts 137°
2026-05-05 20:59 60.20551 11.08949 680 ft 15 kts 195°
2026-05-05 20:59 60.20442 11.08888 682 ft 17 kts 195°
2026-05-05 21:00 60.20320 11.08819 682 ft 19 kts 195°
2026-05-05 21:00 60.20187 11.08743 681 ft 21 kts 196°
2026-05-05 21:00 60.20043 11.08661 679 ft 22 kts 196°
2026-05-05 21:00 60.19914 11.08600 680 ft 12 kts 175°
2026-05-05 21:01 60.19820 11.08688 681 ft 19 kts 156°
2026-05-05 21:01 60.19751 11.08911 679 ft 19 kts 107°
2026-05-05 21:01 60.19714 11.09167 685 ft 20 kts 105°
2026-05-05 21:01 60.19671 11.09301 688 ft 8 kts 161°
2026-05-05 21:02 60.19613 11.09290 689 ft 9 kts 195°
2026-05-05 21:02 60.19599 11.09281 691 ft 5 kts 195°
2026-05-05 21:02 60.19596 11.09280 691 ft 0 kts 195°